Wind_Speed
16 17 17 18 18 19 19 18 18 18 17 16 15 13 12 11 10 10 10 12 14 17 18 21 24 25 26 28 29 30 31 30 30 31 30 30 30 31 30 30 29 28 27
16 17 18 18 19 19 19 19 19 19 18 17 16 14 13 12 11 10 10 11 12 14 16 18 21 23 25 27 28 29 30 31 31 30 31 32 31 31 31 31 31 31 30
15 16 17 18 18 18 19 19 19 19 19 19 18 17 15 14 13 11 10 10 11 13 14 16 18 21 24 25 27 27 28 30 32 31 31 32 32 32 31 32 31 32 32
14 15 16 16 17 18 19 20 20 20 20 19 19 18 17 16 15 13 12 11 11 12 13 14 16 18 21 23 25 27 28 29 31 32 32 32 33 33 32 33 33 33 33
13 14 15 16 17 19 20 20 20 20 21 20 19 18 18 17 16 15 14 13 12 12 12 12 14 16 18 20 23 25 27 29 30 31 32 33 33 33 33 34 34 33 34
12 13 14 15 16 18 20 21 21 21 21 21 20 19 18 18 17 16 15 14 13 12 11 11 11 12 14 17 19 22 24 27 29 30 31 33 34 35 35 35 34 33 34
12 12 14 15 16 18 19 20 21 21 21 21 20 20 20 19 19 18 16 15 13 12 11 10 10 10 11 13 15 18 21 24 26 28 29 32 33 34 34 35 36 35 33
11 12 13 15 16 17 18 20 21 22 22 21 21 21 21 21 21 20 18 16 14 12 11 10 9 8 9 10 12 15 17 20 23 25 27 30 31 33 34 35 35 36 35
11 12 13 14 16 17 18 19 21 21 22 22 21 21 22 22 22 21 19 18 16 14 12 10 9 8 8 8 10 11 14 17 20 22 25 27 30 31 32 34 35 36 35
10 11 13 14 15 16 17 19 20 21 21 22 22 22 22 22 22 22 21 19 18 15 13 12 10 9 8 6 7 8 10 13 16 19 22 25 28 29 31 33 34 36 35
10 11 12 14 15 16 17 18 20 20 20 21 22 22 22 22 22 22 22 21 19 17 15 13 12 10 9 8 7 7 9 10 13 16 20 22 24 27 29 31 33 35 36
9 11 12 13 15 16 17 18 19 20 20 21 21 22 22 22 22 22 22 21 20 19 18 16 14 12 11 10 8 8 9 9 10 12 15 19 21 24 26 28 31 32 34
9 10 12 13 14 16 17 18 18 19 20 20 21 21 22 22 22 21 21 22 21 21 19 18 16 14 13 12 10 9 9 9 10 11 13 15 18 21 23 25 28 30 32
9 10 11 13 14 15 16 17 18 18 19 20 20 21 21 21 21 21 21 21 21 21 21 20 18 16 15 14 13 12 10 9 9 9 10 12 15 17 20 22 24 27 29
9 10 11 12 14 15 16 17 18 18 19 19 20 20 21 21 21 20 20 20 20 20 20 20 19 18 17 16 15 14 13 11 9 8 7 9 11 13 16 18 21 23 26
9 10 11 13 14 15 16 17 17 18 18 19 19 20 20 20 20 20 19 19 19 19 20 19 19 18 18 17 16 16 15 14 11 9 7 7 7 8 11 13 16 19 22
9 10 11 12 14 15 16 17 17 18 18 18 19 19 19 19 20 19 19 18 18 18 19 19 19 19 18 17 17 16 16 15 13 11 9 7 6 7 8 10 12 15 18
10 11 12 13 14 15 16 17 18 18 19 19 19 19 19 19 19 19 18 18 18 18 18 18 18 18 18 18 18 18 17 16 15 13 11 9 7 6 7 8 10 12 15
11 12 13 14 15 16 16 17 18 19 19 19 20 20 19 19 19 19 18 18 17 17 17 17 17 18 18 18 18 18 18 17 16 15 13 10 8 7 6 7 8 10 12
12 13 13 14 15 16 17 18 19 20 20 20 21 20 20 20 19 19 18 18 17 17 17 17 17 17 18 18 17 17 17 17 17 16 15 12 9 7 7 7 7 9 10
13 14 14 15 16 17 18 19 20 21 22 22 22 21 21 20 20 19 19 18 18 18 18 18 18 17 17 18 17 17 17 17 16 16 15 13 12 10 8 7 7 8 9
15 15 15 16 17 18 19 20 21 22 23 23 23 22 22 21 21 20 20 19 19 19 18 18 18 18 18 18 18 17 17 16 16 15 14 13 12 12 10 9 8 7 8
16 16 17 17 18 19 21 22 23 23 24 24 24 24 24 23 23 22 21 21 20 20 20 19 19 19 19 18 18 18 17 17 16 15 14 14 13 13 12 11 10 9 9
17 18 18 19 20 21 22 23 24 25 25 25 25 25 25 25 24 24 23 23 22 21 20 20 20 20 20 20 19 19 18 18 17 17 16 15 15 14 13 13 12 11 10
19 20 20 21 22 23 24 25 26 26 27 27 27 27 26 26 25 25 24 24 23 22 22 21 21 21 21 21 21 20 20 20 19 19 18 17 17 16 16 15 14 13 13
22 22 22 23 24 25 25 26 27 27 28 28 28 28 28 27 26 25 25 25 24 24 24 23 23 22 22 22 22 22 22 21 21 21 20 20 19 19 18 18 17 17 16
Wind_Direction
8 8 7 5 4 3 2 2 0 0 358 355 350 345 338 332 320 303 288 276 268 262 256 251 247 245 246 245 242 239 238 236 235 234 235 234 234 232 232 230 229 229 229
10 11 9 9 8 8 8 8 7 7 7 5 1 356 350 343 334 320 304 290 277 270 264 258 252 247 245 243 241 239 237 235 235 234 235 235 235 235 233 230 228 227 228
13 12 12 13 13 12 12 12 12 11 10 8 6 4 1 356 348 337 320 304 291 282 275 265 257 251 247 245 242 240 238 236 237 235 234 236 236 236 234 230 228 227 227
16 14 15 16 16 15 14 14 13 12 10 9 7 5 3 358 353 346 335 320 305 294 283 274 265 257 251 249 245 242 239 237 237 236 235 234 234 233 233 230 230 229 228
16 16 16 18 17 16 15 14 13 12 11 10 8 6 3 359 356 351 342 332 320 307 296 285 273 262 255 251 249 244 241 239 237 236 236 234 234 232 233 232 231 229 227
16 16 17 16 15 15 15 14 12 11 10 10 9 8 5 2 358 354 348 340 331 321 308 298 286 272 262 256 251 246 244 241 238 236 236 235 235 234 233 232 231 230 230
17 15 14 14 12 11 11 11 11 11 10 10 10 10 9 6 1 357 353 348 342 333 323 312 301 287 270 260 254 249 249 246 241 239 239 237 236 235 233 234 232 232 232
16 14 12 10 9 9 9 9 10 11 11 11 10 10 10 10 8 4 1 357 354 349 341 328 316 301 285 271 261 256 254 250 245 242 242 240 238 237 236 236 235 236 235
14 12 9 8 8 8 8 9 9 10 11 11 11 12 12 11 11 11 10 8 6 3 359 353 344 327 306 287 270 262 257 252 249 245 243 241 239 239 237 236 236 236 234
10 7 6 6 7 7 8 8 8 9 11 12 13 13 13 14 14 14 16 16 14 11 8 4 359 353 341 319 292 277 267 259 253 248 244 241 239 239 237 237 237 236 235
6 5 5 6 7 7 8 8 8 9 10 11 12 13 13 14 15 15 15 16 16 16 14 10 3 358 352 341 322 303 288 275 262 253 247 243 241 241 241 239 238 237 235
4 5 6 6 6 6 6 7 8 9 9 10 11 12 13 13 14 15 16 17 18 18 17 15 12 8 2 355 342 324 310 295 279 263 253 247 244 241 240 239 238 237 235
5 4 2 2 3 3 4 4 5 6 7 8 9 11 12 13 14 15 17 19 20 20 20 19 19 16 10 4 356 341 326 311 296 282 267 257 249 245 243 241 239 238 236
359 359 359 359 -0 1 2 2 2 3 4 6 7 8 8 10 12 14 16 18 20 21 21 21 21 20 17 14 9 4 354 339 317 296 281 267 256 250 247 245 242 239 238
353 355 356 356 357 358 359 360 0 0 1 3 4 5 6 7 9 11 14 16 18 19 20 21 21 21 19 18 15 12 6 357 346 328 304 282 267 256 249 246 243 240 238
345 347 349 351 353 353 354 355 356 357 358 359 0 2 3 5 6 8 10 12 14 15 16 17 18 18 18 18 16 12 10 7 1 352 335 309 285 266 256 249 245 241 238
334 339 341 344 347 347 349 350 351 352 354 355 356 357 359 0 2 3 5 6 8 9 11 12 14 16 16 16 15 13 11 9 6 0 351 337 305 281 268 259 252 245 240
326 330 333 336 340 342 344 346 347 348 349 350 351 351 352 354 356 357 358 0 3 4 6 7 8 9 10 10 11 13 11 10 8 4 356 347 329 300 282 270 262 252 246
318 321 325 329 333 336 339 341 342 344 344 344 345 345 346 347 349 350 351 353 355 357 359 1 3 4 5 5 6 8 10 11 11 9 5 357 350 333 307 283 273 264 256
310 314 318 323 328 331 334 335 336 338 339 338 338 338 339 340 341 342 343 344 345 347 349 352 354 356 358 359 359 1 3 5 7 7 7 5 0 350 332 309 290 281 271
305 309 313 318 322 325 328 330 332 333 334 334 334 334 334 334 335 335 335 336 337 338 340 342 344 346 348 350 351 352 354 356 358 2 5 7 4 357 346 332 310 295 283
301 305 309 314 317 320 322 325 327 329 330 330 330 329 329 329 329 329 329 329 330 331 332 332 334 336 338 340 341 342 344 346 348 350 352 354 355 353 349 342 331 312 295
298 302 305 309 312 315 318 321 323 324 325 326 326 325 325 324 324 324 324 323 322 322 323 324 325 326 328 329 330 332 334 334 336 337 338 339 340 341 339 337 331 322 308
295 299 302 304 307 310 313 315 317 319 321 321 322 322 321 321 320 320 319 319 317 317 317 318 319 320 321 321 322 322 323 324 325 326 326 326 326 328 329 327 325 322 314
291 294 297 300 303 305 308 311 312 314 317 318 318 319 319 318 316 316 315 314 314 313 313 314 315 315 315 315 315 315 315 316 316 317 317 318 318 319 318 317 316 313 310
288 291 294 297 300 303 305 308 310 312 313 314 315 316 317 315 313 311 310 310 309 309 310 310 310 310 309 308 309 309 309 309 309 310 310 310 310 310 310 310 308 305 302
Height
5843 5839 5835 5831 5827 5823 5819 5814 5810 5805 5801 5797 5793 5791 5788 5786 5785 5784 5783 5783 5783 5783 5784 5785 5786 5788 5790 5793 5795 5799 5802 5805 5808 5812 5815 5819 5822 5826 5829 5833 5837 5840 5843
5842 5838 5834 5831 5827 5823 5819 5814 5810 5805 5801 5797 5793 5790 5787 5785 5783 5781 5780 5779 5779 5778 5779 5779 5780 5781 5783 5786 5788 5791 5794 5798 5801 5805 5808 5812 5816 5819 5823 5826 5830 5834 5837
5841 5838 5835 5831 5827 5823 5819 5815 5810 5806 5801 5797 5793 5789 5786 5783 5781 5779 5777 5776 5775 5774 5774 5774 5775 5775 5777 5779 5781 5784 5787 5790 5794 5797 5801 5805 5808 5812 5816 5819 5823 5827 5830
5842 5839 5835 5832 5828 5824 5820 5815 5811 5806 5802 5797 5793 5789 5786 5783 5780 5777 5775 5773 5771 5770 5769 5769 5769 5770 5771 5772 5774 5777 5780 5783 5786 5790 5793 5797 5801 5805 5809 5812 5816 5819 5823
5842 5839 5836 5833 5829 5825 5820 5816 5811 5807 5802 5798 5793 5789 5786 5782 5779 5775 5773 5770 5768 5766 5765 5765 5764 5764 5765 5766 5768 5770 5773 5776 5778 5782 5785 5789 5793 5797 5801 5805 5808 5812 5816
5843 5840 5837 5833 5830 5826 5821 5817 5812 5808 5803 5798 5794 5790 5786 5782 5778 5774 5771 5768 5765 5763 5762 5760 5760 5760 5760 5761 5762 5764 5766 5768 5771 5774 5778 5781 5785 5789 5793 5797 5800 5804 5808
5843 5840 5837 5834 5830 5826 5822 5818 5813 5808 5804 5799 5795 5790 5786 5781 5777 5773 5769 5766 5763 5760 5758 5757 5756 5756 5756 5756 5757 5758 5760 5762 5764 5767 5770 5773 5776 5780 5784 5788 5792 5796 5800
5843 5841 5838 5834 5831 5827 5823 5819 5814 5809 5805 5800 5795 5791 5786 5782 5777 5773 5768 5764 5761 5758 5756 5754 5753 5752 5752 5752 5752 5753 5754 5756 5758 5760 5763 5765 5768 5772 5776 5780 5784 5788 5792
5843 5841 5838 5835 5831 5827 5824 5819 5815 5810 5805 5801 5796 5792 5787 5782 5778 5773 5768 5764 5761 5758 5755 5753 5751 5750 5749 5749 5749 5749 5749 5750 5752 5753 5756 5758 5761 5764 5767 5771 5775 5779 5783
5844 5841 5838 5835 5832 5828 5824 5820 5816 5811 5807 5802 5797 5793 5788 5784 5779 5774 5769 5765 5761 5758 5755 5752 5750 5749 5747 5746 5745 5745 5745 5745 5746 5747 5749 5751 5753 5755 5758 5762 5766 5770 5774
5843 5841 5838 5835 5832 5828 5824 5821 5816 5812 5808 5803 5799 5794 5789 5785 5780 5776 5771 5767 5762 5759 5755 5752 5750 5748 5746 5745 5743 5743 5742 5741 5741 5742 5743 5744 5746 5748 5751 5754 5757 5761 5765
5843 5841 5838 5835 5832 5828 5825 5821 5817 5813 5809 5804 5800 5795 5791 5786 5782 5777 5773 5768 5764 5760 5756 5753 5750 5748 5746 5744 5742 5741 5739 5738 5737 5737 5738 5739 5740 5741 5743 5746 5749 5752 5756
5843 5840 5838 5835 5832 5829 5825 5821 5817 5813 5809 5805 5801 5796 5792 5788 5783 5779 5774 5770 5766 5762 5758 5754 5751 5748 5746 5744 5741 5739 5737 5736 5734 5733 5733 5733 5734 5735 5737 5739 5741 5744 5748
5842 5840 5837 5835 5832 5828 5825 5822 5818 5814 5810 5806 5802 5798 5793 5789 5785 5780 5776 5772 5768 5764 5760 5756 5753 5750 5747 5744 5741 5738 5736 5734 5732 5730 5729 5729 5729 5730 5731 5733 5735 5737 5740
5842 5839 5837 5834 5831 5828 5825 5821 5818 5814 5810 5806 5802 5799 5794 5790 5786 5782 5778 5774 5770 5766 5762 5758 5755 5751 5748 5745 5741 5738 5736 5733 5730 5728 5726 5726 5725 5725 5726 5727 5729 5731 5733
5841 5839 5836 5834 5831 5828 5824 5821 5818 5814 5810 5807 5803 5799 5795 5791 5787 5783 5779 5775 5772 5768 5764 5760 5756 5753 5749 5746 5742 5739 5736 5732 5729 5727 5725 5723 5722 5722 5722 5723 5724 5726 5728
5840 5837 5835 5833 5830 5827 5824 5820 5817 5813 5810 5806 5803 5799 5795 5791 5788 5784 5780 5776 5773 5769 5765 5762 5758 5754 5750 5747 5743 5740 5736 5733 5730 5727 5724 5722 5721 5720 5720 5720 5720 5721 5723
5838 5836 5833 5831 5828 5825 5822 5819 5816 5812 5809 5805 5802 5798 5795 5791 5787 5784 5780 5776 5773 5770 5766 5763 5759 5755 5752 5748 5744 5741 5737 5734 5731 5727 5724 5722 5720 5719 5718 5718 5718 5718 5719
5835 5833 5831 5829 5826 5824 5821 5818 5814 5811 5808 5804 5801 5797 5794 5790 5787 5783 5780 5776 5773 5770 5766 5763 5760 5756 5752 5749 5745 5742 5738 5735 5731 5728 5725 5722 5720 5718 5717 5716 5716 5715 5715
5832 5831 5829 5826 5824 5821 5818 5815 5812 5809 5806 5802 5799 5796 5792 5789 5785 5782 5779 5775 5772 5769 5766 5763 5759 5756 5753 5749 5746 5743 5739 5736 5732 5729 5725 5722 5720 5718 5716 5715 5714 5713 5713
5829 5827 5825 5823 5821 5818 5816 5813 5810 5807 5803 5800 5796 5793 5790 5786 5783 5780 5777 5774 5770 5767 5764 5761 5758 5755 5752 5749 5746 5742 5739 5736 5733 5730 5726 5723 5720 5718 5716 5714 5713 5712 5711
5825 5823 5822 5820 5817 5815 5812 5810 5807 5804 5800 5797 5793 5790 5787 5783 5780 5777 5774 5771 5768 5765 5762 5759 5756 5754 5751 5748 5745 5742 5739 5736 5733 5730 5727 5724 5721 5718 5716 5714 5712 5710 5709
5821 5819 5817 5816 5813 5811 5808 5806 5803 5800 5796 5793 5790 5786 5783 5780 5777 5773 5770 5768 5765 5762 5759 5757 5754 5751 5748 5746 5743 5740 5737 5734 5731 5729 5726 5723 5720 5718 5715 5713 5711 5709 5707
5816 5814 5813 5811 5809 5807 5804 5801 5798 5795 5792 5789 5786 5782 5779 5775 5772 5769 5766 5763 5761 5758 5756 5753 5751 5748 5745 5742 5740 5737 5734 5732 5729 5726 5724 5721 5719 5716 5714 5712 5710 5707 5705
5810 5809 5807 5806 5804 5802 5799 5796 5794 5791 5788 5784 5781 5777 5774 5771 5768 5765 5762 5759 5756 5753 5751 5749 5746 5744 5741 5738 5736 5733 5730 5728 5725 5723 5721 5718 5716 5714 5711 5709 5707 5705 5703
5804 5803 5801 5800 5798 5795 5793 5790 5788 5785 5782 5778 5775 5772 5769 5766 5763 5760 5756 5753 5751 5748 5745 5743 5741 5738 5736 5733 5731 5728 5725 5723 5721 5719 5716 5714 5712 5710 5708 5706 5704 5702 5700